RH
36 30 26 25 27 28 30 32 37 50 46 32 31 26 27 30 33 51 70 64 72 88 89 91 92 90 88 86 88 96 96 98 98 97 98 97 98 98
33 28 27 29 30 31 30 30 33 44 59 38 34 38 41 39 50 59 64 56 63 73 93 94 91 90 89 87 93 92 97 97 98 98 98 99 98 98
29 28 30 31 31 31 30 29 33 41 51 46 50 51 58 59 55 59 63 67 63 66 93 92 91 90 89 92 92 94 98 99 98 99 98 98 99 99
29 30 32 33 33 32 32 34 40 44 54 62 65 64 68 73 75 78 74 69 69 64 90 90 88 92 94 98 98 98 94 97 99 98 96 99 98 99
30 32 31 32 29 32 37 42 47 61 69 76 84 86 89 84 83 82 79 76 70 73 82 77 87 81 100 100 98 97 96 98 97 100 100 100 100 100
31 30 26 24 31 42 49 61 77 81 86 91 93 91 87 86 94 94 84 80 81 72 71 67 80 70 84 72 65 63 66 99 100 100 100 100 99 99
27 18 17 23 39 47 68 80 84 86 88 94 94 91 100 98 87 89 94 85 74 77 88 82 87 69 60 57 60 60 69 100 100 100 100 100 99 97
16 16 18 27 38 53 72 82 88 89 91 94 95 100 98 89 88 98 90 87 100 84 100 94 69 66 60 64 65 72 82 100 100 100 99 100 98 100
15 14 16 30 59 68 71 83 88 92 96 98 93 88 94 92 90 92 93 99 99 87 86 100 65 70 69 71 67 61 62 89 100 100 100 100 100 100
13 13 27 43 51 67 87 92 98 92 80 80 92 98 98 96 98 98 97 99 87 75 82 100 81 78 77 73 63 61 63 70 100 100 100 100 100 100
16 30 47 50 66 93 91 92 86 82 84 84 91 98 100 99 98 100 93 98 90 80 77 100 86 91 82 71 63 67 70 74 73 71 89 98 100 100
30 39 50 79 95 94 96 98 99 95 90 92 86 78 72 73 77 87 94 99 95 99 80 99 95 98 98 86 79 73 65 64 68 71 70 71 78 96
63 52 64 78 98 97 96 97 95 93 96 86 76 71 73 76 79 82 88 98 100 97 78 98 96 96 100 99 82 74 69 66 70 67 68 69 73 80
61 71 85 99 98 98 94 93 97 99 78 74 78 78 82 81 81 83 86 89 90 95 88 96 96 99 97 95 93 74 74 70 71 70 72 70 68 74
82 99 100 100 69 52 55 66 70 76 80 82 86 85 88 86 85 85 83 84 84 80 81 87 95 97 99 97 100 88 83 71 68 72 76 75 77 73
91 100 89 62 55 56 65 75 79 83 89 94 94 90 87 87 86 88 89 88 90 73 77 82 86 95 97 96 100 98 80 98 76 76 82 86 82 82
99 72 54 51 61 75 78 80 81 84 88 91 91 90 90 93 88 87 91 96 98 93 80 72 78 88 90 91 92 81 82 82 78 86 97 100 84 78
76 61 58 77 84 84 84 83 84 86 89 92 91 94 96 95 94 92 98 98 98 92 88 80 87 89 81 86 91 89 85 88 83 92 97 100 96 71
62 68 87 88 89 88 92 91 87 87 91 92 94 94 95 94 97 97 96 97 94 90 85 92 97 98 98 100 85 99 96 92 95 95 94 100 100 82
76 88 89 92 92 94 95 94 90 90 91 91 94 96 97 97 96 96 96 99 98 95 97 92 91 97 99 99 100 73 81 96 98 97 94 91 94 90
85 85 91 94 95 95 95 93 92 93 97 98 97 96 96 97 94 96 98 98 100 100 97 90 90 95 98 97 98 87 78 82 93 99 97 98 96 94
88 87 91 95 97 96 94 94 91 90 94 98 97 96 96 98 98 99 100 100 98 97 94 92 92 95 94 99 97 96 94 81 77 74 75 95 99 97
91 91 94 97 95 96 98 96 93 92 98 98 99 98 92 96 96 97 99 97 97 96 97 95 90 91 92 97 98 97 96 91 87 81 70 77 90 99
Wind_Speed
9 10 11 12 13 15 17 18 20 21 31 30 30 32 35 35 34 32 32 35 32 29 30 31 30 33 32 32 31 30 31 31 33 33 34 34 35 34
10 11 13 14 15 16 18 19 20 23 27 33 36 37 37 37 35 34 36 36 33 31 29 30 32 30 30 30 31 33 32 33 34 35 35 35 35 35
11 13 14 16 17 18 20 22 23 24 30 36 35 37 37 37 36 34 32 31 33 32 31 31 29 29 32 32 33 33 34 33 34 33 34 34 34 34
12 14 16 18 19 20 22 23 24 25 29 37 36 35 36 35 37 32 31 33 34 34 30 28 32 31 33 32 31 32 32 32 33 34 36 35 35 34
13 16 17 19 21 22 23 24 26 27 27 31 37 35 37 39 38 37 39 38 37 37 34 33 32 32 29 30 31 29 31 33 32 32 32 32 32 32
15 17 18 20 21 22 23 24 24 25 27 30 33 36 38 39 35 40 42 41 42 42 38 35 31 33 35 32 29 29 29 29 29 29 30 32 33 33
15 17 18 19 19 20 19 19 22 25 26 29 33 37 34 35 39 38 41 45 46 41 40 32 39 42 38 31 30 29 29 29 31 33 32 32 32 31
16 17 18 19 20 20 20 19 19 22 26 30 33 34 38 38 39 38 41 44 45 38 31 44 43 42 36 36 34 33 33 31 30 32 32 29 29 29
18 20 21 20 18 21 22 20 20 22 24 28 36 36 35 37 37 38 37 37 38 44 46 43 40 43 41 38 38 34 28 26 27 27 25 25 27 28
19 20 20 21 21 21 19 22 25 28 31 33 31 33 33 31 32 34 35 37 41 40 38 39 43 41 41 41 35 27 21 24 24 25 30 29 28 28
17 16 18 19 17 18 21 25 29 32 32 32 28 26 26 28 25 26 31 33 39 41 38 36 37 43 44 40 32 27 33 31 31 27 24 26 28 28
19 21 22 20 19 19 22 27 30 33 31 29 30 31 27 24 22 24 28 31 35 39 35 34 40 38 30 34 34 37 38 34 30 27 24 23 22 25
23 25 24 22 19 21 22 25 26 24 27 29 30 28 26 25 26 27 27 28 32 35 35 33 38 38 30 41 45 43 40 37 35 30 25 22 18 22
23 23 20 21 21 21 19 18 19 21 24 25 27 28 28 30 30 29 27 28 28 31 31 29 32 33 35 40 45 45 41 37 35 32 23 22 26 27
20 19 20 22 23 19 19 18 18 19 22 25 27 27 29 31 31 30 28 29 29 29 29 29 28 29 30 36 41 42 42 40 28 27 33 30 31 31
22 25 25 21 17 17 15 15 16 19 22 24 26 29 30 30 31 29 31 32 35 33 29 29 27 28 32 34 36 42 38 37 36 35 33 36 35 33
20 20 18 16 16 16 17 17 19 20 21 24 28 29 31 31 29 29 33 35 34 35 35 30 28 29 30 33 36 35 35 36 37 37 37 40 37 35
16 17 15 15 17 19 20 21 22 21 24 27 27 29 31 32 34 34 32 32 34 34 35 33 34 35 37 37 27 31 36 39 38 36 34 36 41 37
13 12 14 16 18 19 21 23 24 24 26 26 28 31 32 35 34 34 33 33 34 34 34 36 36 35 38 38 38 27 30 35 32 35 34 35 38 41
11 12 15 17 19 21 22 23 25 26 25 26 30 33 33 34 34 32 31 33 34 35 38 35 33 34 35 39 45 42 31 33 34 35 35 34 36 37
12 13 16 18 20 21 22 23 26 25 27 29 32 33 32 33 33 31 32 32 32 34 36 36 33 29 30 32 35 39 36 28 27 31 32 33 36 36
13 15 17 19 20 21 22 24 25 23 26 31 33 33 33 33 32 32 32 33 33 33 33 35 34 31 31 32 34 37 37 34 28 25 20 21 25 27
14 16 18 19 18 21 23 25 23 22 27 30 33 34 34 35 31 30 31 31 33 34 33 33 33 30 31 32 32 34 35 34 33 32 26 16 16 19
Wind_Direction
277 284 290 291 293 295 299 298 299 300 306 307 309 309 308 310 311 312 306 306 306 302 300 298 295 295 294 292 291 291 289 287 285 284 280 278 276 275
283 294 299 299 298 299 298 295 294 294 290 296 303 306 309 310 311 310 306 307 307 304 302 299 297 297 295 292 292 292 290 288 286 284 282 279 277 274
293 298 299 300 301 300 299 299 298 296 294 299 302 306 309 311 313 311 311 310 308 309 306 300 300 297 295 292 293 291 291 290 287 285 283 280 278 275
294 301 302 301 301 302 302 300 300 303 302 302 306 311 315 317 316 315 316 316 315 313 306 300 297 297 293 295 294 292 291 288 287 283 281 280 277 276
303 300 300 301 302 303 304 305 306 306 303 307 312 316 316 317 321 320 321 319 316 315 308 307 304 302 300 296 293 290 287 286 284 284 283 280 279 277
301 300 299 300 302 305 306 307 307 304 308 308 309 311 315 317 316 315 317 316 314 316 314 310 309 312 307 306 300 302 298 291 288 286 284 282 280 277
299 299 300 300 300 300 301 298 299 301 304 305 308 311 313 312 316 316 310 313 315 316 316 315 313 314 312 310 309 306 304 298 291 286 284 282 279 276
305 305 303 303 304 307 304 301 299 302 302 302 306 306 308 311 311 311 309 310 310 315 309 305 312 312 313 315 314 311 304 295 291 288 286 283 280 277
311 309 306 305 301 300 305 309 303 294 294 300 302 306 308 308 308 307 310 310 301 300 306 304 313 312 315 313 312 313 307 296 293 290 287 286 283 279
313 310 307 303 302 305 313 307 300 300 303 306 307 305 305 308 305 303 301 296 296 302 310 301 313 312 315 313 316 315 312 310 298 292 287 285 283 280
318 316 317 317 319 318 310 304 305 304 307 311 308 303 304 304 302 302 301 306 307 310 313 309 316 314 314 314 322 322 320 314 308 301 288 285 284 282
321 324 323 321 318 318 312 312 310 311 318 315 309 310 311 310 313 313 313 309 310 308 313 309 311 316 314 311 313 316 317 317 316 311 299 291 282 281
318 318 319 322 323 311 308 301 305 314 303 303 308 313 316 318 319 318 315 313 308 301 311 308 305 307 295 301 309 312 316 317 316 312 302 290 280 287
316 319 327 326 311 311 310 314 312 302 307 313 315 318 323 324 322 321 318 314 309 307 316 315 305 306 304 302 303 311 314 313 314 312 311 300 293 290
326 325 316 319 319 318 317 316 316 317 317 318 320 321 322 322 322 324 322 322 317 317 323 323 315 312 306 303 302 307 312 313 311 310 311 306 303 299
335 320 317 317 318 321 322 325 326 326 326 324 322 323 324 326 325 325 324 327 322 321 328 329 325 319 312 308 306 303 308 294 311 311 313 309 303 298
313 314 324 330 335 337 337 335 334 333 334 331 329 329 330 329 329 330 327 327 324 324 324 329 328 322 317 314 307 307 308 307 312 311 308 303 299 300
320 326 334 340 342 341 337 337 339 338 337 334 332 333 332 332 331 332 331 329 327 327 324 329 330 327 326 320 309 304 305 305 309 309 306 300 303 304
329 338 343 344 343 339 337 338 340 340 337 338 337 337 335 334 334 333 334 332 329 328 328 330 329 326 313 305 319 306 294 305 310 312 311 303 292 299
341 344 344 344 342 338 340 340 339 340 341 341 341 340 339 338 337 337 335 332 331 330 328 329 329 330 313 306 309 319 330 317 313 311 311 307 301 304
342 343 341 342 340 340 340 339 339 341 344 342 343 344 345 344 341 340 337 336 334 332 329 330 334 333 325 326 314 323 331 335 325 315 313 310 308 309
339 338 341 340 340 341 340 340 340 343 346 346 347 347 347 346 343 340 338 336 335 333 331 332 336 337 334 332 326 328 332 334 336 330 328 326 316 292
339 338 339 340 340 340 341 341 339 343 347 346 347 347 348 344 342 340 338 338 337 336 336 334 339 341 339 341 337 333 337 342 343 343 348 347 325 310